Home > Weather > Messina > Past weeks

Flag for Italy Past Weather in Messina, Italy — Yesterday and Last 2 Weeks

Now
88 °F

Sunny.


Feels Like: 88 °F
Forecast: 74 / 84 °F
Wind: 17 mph from North

Location: Reggio Calabria

Current Time: Aug 28, 2016 at 4:09:02 PM

Latest Report: Aug 28, 2016 at 2:50 PM


Visibility: 10 mi

Pressure: 30.07 "Hg

Humidity: 40%

Dew Point: 61 °F

Location of MessinaLocation

Past Weather in Messina — Graph

°F

Messina Temperature Yesterday

Maximum temperature yesterday: 86 °F (at 5:50 PM)
Minimum temperature yesterday: 70 °F (at 5:55 AM)
Average temperature yesterday: 80 °F

High & Low Weather Summary for the Past Weeks

 TemperatureHumidityPressure
High93 °F (Aug 21, 1:50 PM)100% (Aug 20, 5:50 PM)30.15 "Hg (Aug 20, 5:50 PM)
Low68 °F (Aug 20, 5:50 PM)23% (Aug 21, 2:50 PM)29.83 "Hg (Aug 18, 6:00 AM)
Average79 °F56%29.98 "Hg
* Reported Aug 13 2:50 PM — Aug 28 2:50 PM, Messina, Weather by CustomWeather, © 2016

Note: Actual official high and low records may vary slightly from our data, if they occured in-between our weather recording intervals... More about our weather records

Advertising

Messina Weather History for the Previous 24 Hours

Scroll right to see more
 ConditionsComfort  
Time TempWeatherWind HumidityBarometerVisibility
2:50 PM
Sun, Aug 28
88 °FSunny.17 mph40%30.07 "Hg10 mi
1:50 PM88 °FSunny.15 mph40%30.09 "Hg10 mi
11:50 AM88 °FSunny.16 mph35%30.09 "Hg10 mi
10:50 AM86 °FSunny.12 mph38%30.09 "Hg10 mi
9:50 AM82 °FSunny.13 mph45%30.09 "Hg10 mi
8:50 AM81 °FSunny.13 mph48%30.09 "Hg10 mi
7:50 AM77 °FSunny.8 mph44%30.09 "Hg10 mi
6:50 AM75 °FClear.7 mph47%30.07 "Hg10 mi
6:00 AM75 °FClear.7 mph47%30.07 "Hg10 mi
11:50 PM
Sat, Aug 27
73 °FClear.5 mph53%30.09 "Hg10 mi
10:50 PM75 °FClear.5 mph61%30.09 "Hg10 mi
9:50 PM77 °FClear.No wind65%30.09 "Hg10 mi
8:50 PM77 °FClear.3 mph65%30.09 "Hg10 mi
7:50 PM79 °FSunny.6 mph74%30.07 "Hg10 mi
6:50 PM84 °FSunny.6 mph48%30.07 "Hg10 mi
5:50 PM86 °FSunny.7 mph46%30.07 "Hg10 mi
4:50 PM84 °FSunny.6 mph48%30.07 "Hg10 mi
Weather by CustomWeather, © 2016

See weather overviewHow to use our weather pages